Starlink 32708

operational
NORAD ID: 62495 Int'l Des: 2025-003 Owner: SPXS Country: US Constellation: starlink
LEOCIRCULAR

关于 Starlink 32708

正在加载描述...

实时位置

正在加载3D地球...

即将过境

高度历史

Altitude vs Time

uPlot chart will show altitude changes over time

两行轨道根数

1 62495U 25003J 25347.46993207 .00047825 00000-0 17336-2 0 9995
2 62495 43.0005 56.0419 0001506 280.3859 79.6823 15.27629642 53368
Epoch: Dec 13, 2025 • Age: 18 hours

当前状态

高度 489.5 km
速度 7.62 km/s
星下点 -28.20°S, 100.77°E
发射日期 Jan 6, 2025
运行时间 0.9 years
类型 internet

技术详情

分类 Payload
质量 730.00 kg
干质量 700.00 kg
总质量 730.00 kg
长度 0.30 m
直径 4.10 m
跨度 29.00 m
形状 Box + pan
制造商 SPXS
平台类型 Starlink V2M
阶段状态 In Orbit
所有者/国家 SPXS/US

大型星座

Loading constellations...